Location: Sternwarte_Laufen
(47.9344°N, 12.9346°E)
Time: 09:17:44
(UTC+02:00)

ISS - Pass Details

Date: 23 May 2017
Orbit: 401 x 408 km, 51.6° (Epoch: 28 June)

Event Time Altitude Azimuth Distance (km) Brightness Sun altitude
Rises 02:43:50 0° 288° (WNW) 2,337 0.0 -18.0°
Reaches altitude 10° 02:45:58 10° 294° (WNW) 1,473 -1.0 -17.8°
Maximum altitude 02:49:11 47° 10° (N) 550 -2.8 -17.6°
Drops below altitude 10° 02:52:22 10° 86° (E) 1,466 -0.6 -17.4°
Sets 02:54:30 0° 92° (E) 2,323 0.4 -17.2°
